Showing default

MICROSCOPE, 41457

Orbit data source: Space-Track

MICROSCOPE, 41457 is a payload satellite owned by CNES (FR) in SSO that was launched on Mon, 25 Apr 2016 UTC via a SOYUZ-ST-A launch vehicle from the French Guiana (FRGUI). Payload-class satellites include a variety of spacecraft equipped with specific instruments for various scientific and technological missions. These include communications satellites like Starlink; space stations such as the ISS; scientific satellites like the Hubble; Earth observation satellites from companies like Planet Labs, Umbra, and HawkEye 360; GPS; miniature CubeSats for education and research; and military/defense satellites.

Loading next visibility...
Identifier
41457, 2016-025B
Orbit
SSO
Country
Flag of FRFR
Related business
Manufacturer
ONERA/CNES
Mission
Non-operational Civil Science
Bus & Motor
MYRIADE, Unknown motor
Mass
303 kg wet, 303 kg dry
Launch date (UTC)
2016-04-25 (10 years ago)
Launch vehicle
SOYUZ-ST-A
Launch site
French Guiana (FRGUI)
Object type
Payload
Rocket body
Debris
Shape & HBR
Box + 2 Pan + 2 Rod, 1.6 m
Radar Cross Section
4.027 m², Large (>1 m²)

Expand to show TLE details & history
Last TLE update: 12 hours ago

TLE from 12 hours ago
0 MICROSCOPE
1 41457U 16025B   25311.30631827  .00001591  00000-0  34847-3 0  9992
2 41457  98.2519 320.3319 0001486 106.7091 253.4271 14.59040769506360
Epoch: 2025-11-07T07:21Z
TLE epoch observation values (Epoch: 2025-11-07T07:21:05.898Z)
Latitude
-0.00008°
Longitude
163.30516°
Altitude
699.555 km
Speed
7.506 km/s
True Right ascension
21h 21m 19s
True Declination
0° 00' 00"
Sunlit
Object was in daylight at epoch
Visualization orbit readout
Latitude
Unknown
Longitude
Unknown
Altitude
Unknown
Speed
Unknown
Apparent Right ascension
Unknown
Apparent Declination
Unknown
Sunlit
N/A
Visualization observer readout
Local Sidereal Time
15:26:42
Azimuth
Unknown
Elevation
Unknown
Doppler factor
Unknown
Orbital elements
Apogee altitude
694.409 km
Perigee altitude
692.307 km
Semi-major axis
7,071.495 km
Eccentricity
0.00015
Inclination
98.2519°
RAAN
320.3319°
Arg. of periapsis
106.7091°
True anomaly
253.41078°
Mean anomaly
253.4271°
Eccentric anomaly
253.41894°
Mean motion
3.64986 °/min
Orbital period
98.63 mins
BSTAR
0.00034847
Loading maneuver chart data...
Computing Atmospheric mass density...
Loading historical data...
Loading historical data...
Loading historical data...
Loading historical data...
Loading historical data...
Loading historical data...
Loading historical data...

Documentation

Showing up to 5 results
|